Location: Dealu Mare
(46.0500°N, 22.8167°E)
Time: 20:57:19
(UTC+00:00)

Cosmos 1515 Rocket - Pass Details

Date: 15 January 2026
Orbit: 599 x 623 km, 82.5° (Epoch: 10 February)

Event Time Altitude Azimuth Distance (km) Brightness Sun altitude
Exits shadow 04:00:42 47° 227° (SW) 826 3.9 -21.4°
Drops below altitude 10° 04:04:08 10° 189° (S) 1,967 6.1 -20.8°
Sets 04:06:22 0° 185° (S) 2,862 7.0 -20.4°
